User: anonymous   Login
Location: Austin
(30.3000°N, 97.7500°W)
Time: 22:36:31
(UTC-05:00)
Language:

Cosmos 2221 - Orbit

View from above orbital plane
View from above orbital plane
View from above satellite
View from above satellite

Ground track
Ground track

The orbit data is extracted from the following two-line orbital elements,

1 22236U 92080A   24174.42383962  .00002194  00000-0  21448-3 0  9997
2 22236  82.5053 156.0907 0017106 124.8120 235.4712 14.91815052687417
Epoch (UTC): 22 June 2024 10:10:19
Eccentricity: 0.0017106
inclination: 82.5053°
perigee height: 580 km
apogee height: 604 km
right ascension of ascending node: 156.0907°
argument of perigee: 124.8120°
revolutions per day: 14.91815052
mean anomaly at epoch: 235.4712°
orbit number at epoch: 68741

The dashed part of the orbit path shows where the satellite is in the earth's shadow,  

DLR